Weather in Zandak

Russia / Chechen Republic     43°03′07″N   46°27′10″E
temp.,
°C
wind,
m/s
gust,
m/s
humid.,
%
clouds,
%
prec.,
mm/h
press.,
hPa
HPBL,
m
19 april, mon
mon1900:00+10s1183100 0.0 101722
03:00+10ssw1183100 0.0 101610
06:00+10se218198 0.0 101619
09:00+17ne245771 0.0 1014979
12:00+18nne435389 0.1 10141318
15:00+19ne335448 0.3 10131024
18:00+14n117483 0.0 101436
21:00+12ssw1182100 0.0 101513
20 april, tue
tue2000:00+12se1179100 0.0 101313
03:00+11s227797 0.0 101319
06:00+12s3266100 0.0 101133
09:00+20ese1241100 0.0 1009443
12:00+25ne133161 0.0 10071083
15:00+25ne2333100 0.0 10051258
18:00+20ssw2151100 0.0 100614
21:00+17s3353100 0.0 100856
21 april, wed
wed2100:00+15ssw336774 0.1 100972
03:00+13wnw3580100 0.2 1011299
06:00+10wnw3795100 0.3 1015536
09:00+8w478587 0.3 1017544
12:00+12nw446695 0.1 1016940
15:00+9nw3384100 1.3 1018623
18:00+7wnw2392100 1.4 1020425
21:00+7wnw2395100 2.3 1022364
22 april, thu
thu2200:00+7wnw1293100 0.1 1022180
03:00+6wnw119398 0.1 1022120
06:00+7ne128792 0.0 1022151
09:00+9ne227584 0.0 1022625
12:00+8n3282100 0.0 1022742
15:00+7n2290100 0.1 1024459
18:00+6nnw1195100 0.1 1024253
21:00+6ne119495 0.1 1024158
23 april, fri
fri2300:00+5nne1196100 0.0 1023102
03:00+5nw2298100 0.4 1023203
06:00+5wnw1198100 0.4 1023180
09:00+6nw2387100 2.2 1023474
12:00+8nw238489 0.3 1022565
15:00+9wnw237857 0.3 1021655
18:00+9nw118138 0.0 1022153
21:00+6s228415 0.0 102216